Photometre #744[NE_1.6] Ben_Salem AOT

File : 20190927_744.hum

27/09/2019,05:56:12,TEMP=19.0,BA=5.48,STAT.A=0.5,ExtBa=12.91
27/09/2019,05:59:21,TEMP=19.6,BA=5.48,STAT.A=0.5,ExtBa=12.75
27/09/2019,06:03:03,TEMP=19.9,BA=5.36,STAT.A=0.5,ExtBa=12.78
27/09/2019,06:07:26,TEMP=20.2,BA=5.36,STAT.A=0.5,ExtBa=12.81
27/09/2019,06:12:44,TEMP=20.6,BA=5.60,STAT.A=0.5,ExtBa=12.85
27/09/2019,06:19:15,TEMP=21.1,BA=5.60,STAT.A=0.5,ExtBa=12.93
27/09/2019,06:27:28,TEMP=21.7,BA=5.36,STAT.B=0.5,ExtBa=13.07
27/09/2019,06:36:28,TEMP=23.1,BA=5.36,STAT.A=0.5,ExtBa=12.77
27/09/2019,06:38:23,TEMP=23.4,BA=5.36,STAT.A=0.5,ExtBa=12.82
27/09/2019,06:40:45,TEMP=23.5,BA=5.44,STAT.A=0.5,ExtBa=12.87
27/09/2019,06:46:23,TEMP=23.3,BA=5.44,STAT.A=0.5,ExtBa=13.12
27/09/2019,06:52:49,TEMP=23.7,BA=5.60,STAT.C=0.5,ExtBa=13.33
27/09/2019,07:06:36,TEMP=25.6,BA=5.36,STAT.A=0.5,ExtBa=12.83
27/09/2019,07:09:05,TEMP=25.7,BA=5.36,STAT.A=0.5,ExtBa=13.01
27/09/2019,07:19:34,TEMP=26.2,BA=5.40,STAT.A=0.5,ExtBa=13.57
27/09/2019,07:32:22,TEMP=27.2,BA=5.60,STAT.A=0.5,ExtBa=13.63
27/09/2019,07:48:25,TEMP=28.6,BA=5.60,STAT.B=0.5,ExtBa=13.68
27/09/2019,07:57:14,TEMP=29.5,BA=5.40,STAT.D=0.5,ExtBa=13.26
27/09/2019,08:12:02,TEMP=29.3,BA=5.60,STAT.F,ExtBa=13.74
27/09/2019,08:27:01,TEMP=30.1,BA=5.40,STAT.D=0.5,ExtBa=13.47
27/09/2019,08:42:01,TEMP=30.2,BA=5.60,STAT.D=0.5,ExtBa=13.81
27/09/2019,08:57:01,TEMP=30.3,BA=5.60,STAT.D=0.5,ExtBa=13.95
27/09/2019,09:12:03,TEMP=31.3,BA=5.60,STAT.F,ExtBa=14.09
27/09/2019,09:29:35,TEMP=32.1,BA=5.40,STAT.D=0.5,ExtBa=14.02
27/09/2019,09:42:01,TEMP=32.4,BA=5.60,STAT.D=0.5,ExtBa=14.17
27/09/2019,09:57:01,TEMP=33.0,BA=5.60,STAT.D=0.5,ExtBa=14.23
27/09/2019,10:12:03,TEMP=33.3,BA=5.60,STAT.F,ExtBa=14.25
27/09/2019,10:27:02,TEMP=33.7,BA=5.60,STAT.D=0.5,ExtBa=14.25
27/09/2019,10:42:02,TEMP=33.5,BA=5.56,STAT.D=0.5,ExtBa=14.26
27/09/2019,10:57:02,TEMP=34.3,BA=5.56,STAT.D=0.5,ExtBa=14.24
27/09/2019,11:12:03,TEMP=34.7,BA=5.52,STAT.F,ExtBa=14.21
27/09/2019,11:27:02,TEMP=35.5,BA=5.48,STAT.D=0.5,ExtBa=14.18
27/09/2019,11:42:02,TEMP=35.0,BA=5.52,STAT.D=0.5,ExtBa=14.17
27/09/2019,11:57:02,TEMP=35.0,BA=5.48,STAT.D=0.5,ExtBa=14.17
27/09/2019,12:12:03,TEMP=35.1,BA=5.48,STAT.F,ExtBa=14.16
27/09/2019,12:27:01,TEMP=35.0,BA=5.44,STAT.D=0.5,ExtBa=14.15
27/09/2019,12:42:01,TEMP=35.1,BA=5.44,STAT.D=0.5,ExtBa=14.12
27/09/2019,12:57:01,TEMP=35.0,BA=5.44,STAT.D=0.5,ExtBa=14.12
27/09/2019,13:12:03,TEMP=35.2,BA=5.40,STAT.F,ExtBa=14.08
27/09/2019,13:27:01,TEMP=35.4,BA=5.32,STAT.D=0.5,ExtBa=13.60
27/09/2019,13:42:01,TEMP=35.1,BA=5.40,STAT.D=0.5,ExtBa=14.05
27/09/2019,13:57:01,TEMP=34.9,BA=5.40,STAT.D=0.5,ExtBa=14.03
27/09/2019,14:12:02,TEMP=35.1,BA=5.40,STAT.F,ExtBa=13.99
27/09/2019,14:27:01,TEMP=34.9,BA=5.32,STAT.D=0.5,ExtBa=13.34
27/09/2019,14:35:39,TEMP=34.5,BA=5.36,STAT.B=0.5,ExtBa=13.85
27/09/2019,14:51:42,TEMP=34.5,BA=5.40,STAT.A=0.5,ExtBa=13.71
27/09/2019,15:04:30,TEMP=34.2,BA=5.40,STAT.A=0.5,ExtBa=13.83
27/09/2019,15:14:59,TEMP=34.1,BA=5.40,STAT.A=0.5,ExtBa=13.82
27/09/2019,15:23:46,TEMP=33.7,BA=5.40,STAT.A=0.5,ExtBa=13.78
27/09/2019,15:31:15,TEMP=34.0,BA=5.40,STAT.C=0.5,ExtBa=13.72
27/09/2019,15:45:48,TEMP=33.9,BA=5.28,STAT.A=0.5,ExtBa=13.05
27/09/2019,15:47:48,TEMP=34.0,BA=5.28,STAT.A=0.5,ExtBa=13.06
27/09/2019,15:49:43,TEMP=34.0,BA=5.28,STAT.A=0.5,ExtBa=13.07
27/09/2019,15:52:39,TEMP=33.5,BA=5.28,STAT.A=0.5,ExtBa=13.11
27/09/2019,15:56:35,TEMP=33.1,BA=5.28,STAT.B=0.5,ExtBa=13.12
27/09/2019,16:06:15,TEMP=32.9,BA=5.28,STAT.A=0.5,ExtBa=13.01
27/09/2019,16:11:18,TEMP=32.3,BA=5.40,STAT.A=0.5,ExtBa=13.07
27/09/2019,16:16:36,TEMP=32.0,BA=5.40,STAT.A=0.5,ExtBa=13.05
27/09/2019,16:23:29,TEMP=31.8,BA=5.28,STAT.A=0.5,ExtBa=13.03
27/09/2019,16:25:23,TEMP=32.3,BA=5.28,STAT.A=0.5,ExtBa=12.97
27/09/2019,16:27:50,TEMP=32.1,BA=5.28,STAT.A=0.5,ExtBa=12.99